Time[GMT],salinity[psu](1m),sigma_t[kg/m^3](1m),conductivity[msiemens/cm](1m),temperature[C](1m)
2019-11-26 20:30,31.903,24.594,34.728,9.64
2019-11-26 21:00,31.907,24.597,34.734,9.64
2019-11-26 21:30,31.910,24.599,34.736,9.64
2019-11-26 22:00,31.909,24.596,34.750,9.65
2019-11-26 22:30,31.910,24.597,34.749,9.65
2019-11-26 23:00,31.912,24.597,34.760,9.66
2019-11-26 23:30,31.912,24.597,34.764,9.67
2019-11-27 00:00,31.913,24.598,34.762,9.66
2019-11-27 00:30,31.915,24.600,34.760,9.66
2019-11-27 01:00,31.913,24.599,34.751,9.65
2019-11-27 01:30,31.913,24.599,34.750,9.65
2019-11-27 02:00,,,,
2019-11-27 02:30,31.910,24.602,34.723,9.62
2019-11-27 03:00,31.908,24.602,34.713,9.61
2019-11-27 03:30,31.906,24.602,34.701,9.60
2019-11-27 04:00,31.905,24.602,34.691,9.59
2019-11-27 04:30,31.907,24.605,34.690,9.59
2019-11-27 05:00,31.912,24.608,34.702,9.60
2019-11-27 05:30,31.909,24.602,34.716,9.62
2019-11-27 06:00,31.909,24.604,34.704,9.60
2019-11-27 06:30,31.910,24.604,34.711,9.61
2019-11-27 07:00,31.909,24.606,34.696,9.59
2019-11-27 07:30,31.909,24.608,34.683,9.58
2019-11-27 08:00,31.899,24.604,34.652,9.55
2019-11-27 08:30,31.878,24.619,34.464,9.36
2019-11-27 09:00,31.868,24.627,34.361,9.25
2019-11-27 09:30,31.862,24.625,34.342,9.24
2019-11-27 10:00,31.858,24.618,34.365,9.27
2019-11-27 10:30,31.865,24.632,34.316,9.21
2019-11-27 11:00,31.864,24.618,34.397,9.30
2019-11-27 11:30,31.874,24.613,34.471,9.37
2019-11-27 12:00,31.876,24.620,34.443,9.34
2019-11-27 12:30,31.874,24.617,34.446,9.35
2019-11-27 13:00,31.888,24.619,34.511,9.40
2019-11-27 13:30,31.907,24.620,34.606,9.49
2019-11-27 14:00,31.909,24.612,34.661,9.55
2019-11-27 14:30,31.911,24.612,34.669,9.56
2019-11-27 15:00,31.910,24.608,34.690,9.59
2019-11-27 15:30,,,34.696,
2019-11-27 16:00,31.913,24.608,34.706,9.60
2019-11-27 16:30,31.903,24.613,34.620,9.51
2019-11-27 17:00,,,,
2019-11-27 17:30,31.878,24.630,34.397,9.28
2019-11-27 18:00,,,,
2019-11-27 18:30,31.845,24.622,34.266,9.17
2019-11-27 19:00,31.852,24.621,34.312,9.21
2019-11-27 19:30,31.854,24.620,34.326,9.23
2019-11-27 20:00,31.853,24.620,34.325,9.23
2019-11-27 20:30,31.852,24.618,34.325,9.23
2019-11-27 21:00,,,,
2019-11-27 21:30,31.859,24.616,34.379,9.28
2019-11-27 22:00,31.862,24.616,34.393,9.30
2019-11-27 22:30,31.863,24.616,34.400,9.30
2019-11-27 23:00,31.863,24.614,34.405,9.31
2019-11-27 23:30,31.864,24.614,34.414,9.32
2019-11-28 00:00,31.865,24.613,34.428,9.33
2019-11-28 00:30,31.866,24.613,34.433,9.34
2019-11-28 01:00,31.839,24.590,34.414,9.35
2019-11-28 01:30,,,34.406,
2019-11-28 02:00,31.813,24.570,34.389,9.35
2019-11-28 02:30,31.822,24.578,34.389,9.34
2019-11-28 03:00,,,34.393,
2019-11-28 03:30,,,34.423,
2019-11-28 04:00,31.851,24.594,34.458,9.38
2019-11-28 04:30,31.853,24.590,34.488,9.42
2019-11-28 05:00,31.868,24.592,34.558,9.48
2019-11-28 05:30,31.887,24.595,34.640,9.55
2019-11-28 06:00,31.893,24.590,34.698,9.61
2019-11-28 06:30,31.904,24.595,34.726,9.63
2019-11-28 07:00,,,,
2019-11-28 07:30,,,,
2019-11-28 08:00,,,34.731,
2019-11-28 08:30,31.910,24.601,34.730,9.63
2019-11-28 09:00,31.915,24.608,34.718,9.61
2019-11-28 09:30,31.915,24.607,34.718,9.61
2019-11-28 10:00,31.918,24.610,34.721,9.61
2019-11-28 10:30,31.922,24.615,34.715,9.60
2019-11-28 11:00,31.929,24.622,34.709,9.59
2019-11-28 11:30,31.940,24.636,34.697,9.56
2019-11-28 12:00,31.945,24.646,34.665,9.52
2019-11-28 12:30,,,,
2019-11-28 13:00,31.971,24.683,34.601,9.41
2019-11-28 13:30,32.012,24.720,34.611,9.38
2019-11-28 14:00,32.009,24.736,34.507,9.26
2019-11-28 14:30,32.037,24.778,34.421,9.13
2019-11-28 15:00,,,,
2019-11-28 15:30,32.146,24.869,34.494,9.10
2019-11-28 16:00,32.195,24.912,34.515,9.07
2019-11-28 16:30,32.234,24.939,34.575,9.09
2019-11-28 17:00,32.230,24.937,34.563,9.08
2019-11-28 17:30,32.241,24.943,34.585,9.10
2019-11-28 18:00,32.275,24.965,34.647,9.13
2019-11-28 18:30,32.291,24.972,34.694,9.16
2019-11-28 19:00,32.303,24.982,34.699,9.16
2019-11-28 19:30,32.305,24.983,34.711,9.17
2019-11-28 20:00,,,34.725,
2019-11-28 20:30,32.317,24.989,34.742,9.19
2019-11-28 21:00,32.312,24.987,34.724,9.18
2019-11-28 21:30,32.307,24.981,34.727,9.19
2019-11-28 22:00,32.314,24.990,34.715,9.16
2019-11-28 22:30,32.302,24.978,34.722,9.19
2019-11-28 23:00,32.308,24.984,34.718,9.17
2019-11-28 23:30,32.309,24.984,34.724,9.18
2019-11-29 00:00,32.314,24.986,34.739,9.19
2019-11-29 00:30,32.326,24.997,34.740,9.18
2019-11-29 01:00,32.335,25.002,34.758,9.19
2019-11-29 01:30,32.339,25.004,34.772,9.20
2019-11-29 02:00,32.339,25.003,34.778,9.21
2019-11-29 02:30,32.368,25.025,34.810,9.21
2019-11-29 03:00,32.373,25.030,34.810,9.21
2019-11-29 03:30,32.375,25.026,34.840,9.24
2019-11-29 04:00,32.372,25.028,34.815,9.21
2019-11-29 04:30,32.373,25.030,34.812,9.21
2019-11-29 05:00,32.364,25.020,34.816,9.22
2019-11-29 05:30,32.356,25.018,34.788,9.20
2019-11-29 06:00,32.354,25.023,34.741,9.15
2019-11-29 06:30,32.343,25.017,34.720,9.14
2019-11-29 07:00,32.340,25.014,34.716,9.14
2019-11-29 07:30,32.333,25.008,34.718,9.15
2019-11-29 08:00,32.333,25.010,34.705,9.13
2019-11-29 08:30,32.330,25.009,34.694,9.12
2019-11-29 09:00,32.324,25.006,34.678,9.11
2019-11-29 09:30,32.325,25.007,34.680,9.11
2019-11-29 10:00,32.327,25.006,34.695,9.13
2019-11-29 10:30,32.330,25.010,34.689,9.12
2019-11-29 11:00,32.338,25.020,34.674,9.09
2019-11-29 11:30,32.329,25.011,34.680,9.11
2019-11-29 12:00,32.329,25.011,34.679,9.11
2019-11-29 12:30,32.325,25.008,34.675,9.11
2019-11-29 13:00,32.326,25.008,34.678,9.11
2019-11-29 13:30,32.325,25.009,34.668,9.10
2019-11-29 14:00,32.317,25.006,34.646,9.08
2019-11-29 14:30,32.144,24.900,34.311,8.89
2019-11-29 15:00,32.194,24.927,34.429,8.97
2019-11-29 15:30,32.221,24.944,34.477,8.99
2019-11-29 16:00,32.236,24.951,34.514,9.02
2019-11-29 16:30,32.210,24.936,34.463,8.99
2019-11-29 17:00,32.241,24.954,34.526,9.03
2019-11-29 17:30,32.258,24.964,34.562,9.05
2019-11-29 18:00,32.264,24.968,34.571,9.05
2019-11-29 18:30,32.270,24.973,34.579,9.06
2019-11-29 19:00,32.256,24.963,34.556,9.05
2019-11-29 19:30,32.251,24.961,34.544,9.04
2019-11-29 20:00,,,,
2019-11-29 20:30,32.219,24.947,34.450,8.97
2019-11-29 21:00,32.208,24.939,34.431,8.96
2019-11-29 21:30,32.199,24.934,34.413,8.95
2019-11-29 22:00,32.194,24.929,34.410,8.95
2019-11-29 22:30,32.160,24.911,34.337,8.90
2019-11-29 23:00,32.137,24.898,34.283,8.87
2019-11-29 23:30,32.125,24.887,34.283,8.88
2019-11-30 00:00,32.109,24.863,34.328,8.95
2019-11-30 00:30,32.133,24.879,34.370,8.97
2019-11-30 01:00,32.130,24.874,34.383,8.99
2019-11-30 01:30,32.144,24.885,34.397,8.99
2019-11-30 02:00,,,,
2019-11-30 02:30,32.147,24.889,34.388,8.97
2019-11-30 03:00,32.149,24.893,34.380,8.96
2019-11-30 03:30,32.138,24.881,34.385,8.98
2019-11-30 04:00,32.148,24.888,34.403,8.99
2019-11-30 04:30,32.141,24.887,34.371,8.96
2019-11-30 05:00,32.144,24.884,34.396,8.99
2019-11-30 05:30,32.159,24.900,34.396,8.97
2019-11-30 06:00,32.136,24.878,34.388,8.99
2019-11-30 06:30,31.987,24.809,33.976,8.68
2019-11-30 07:00,32.019,24.827,34.047,8.72
2019-11-30 07:30,31.985,24.814,33.937,8.63
2019-11-30 08:00,32.004,24.823,33.993,8.68
2019-11-30 08:30,32.010,24.825,34.011,8.69
2019-11-30 09:00,32.012,24.825,34.022,8.70
2019-11-30 09:30,32.021,24.827,34.056,8.73
2019-11-30 10:00,32.029,24.835,34.055,8.72
2019-11-30 10:30,32.117,24.869,34.342,8.95
2019-11-30 11:00,32.117,24.870,34.334,8.94
2019-11-30 11:30,32.114,24.872,34.310,8.92
2019-11-30 12:00,32.104,24.858,34.333,8.96
2019-11-30 12:30,32.109,24.864,34.325,8.94
2019-11-30 13:00,32.100,24.854,34.336,8.97
2019-11-30 13:30,,,,
2019-11-30 14:00,,,,
2019-11-30 14:30,32.087,24.836,34.364,9.01
2019-11-30 15:00,32.082,24.828,34.384,9.04
2019-11-30 15:30,32.065,24.809,34.396,9.07
2019-11-30 16:00,32.064,24.807,34.404,9.08
2019-11-30 16:30,32.051,24.792,34.420,9.12
2019-11-30 17:00,32.056,24.794,34.434,9.13
2019-11-30 17:30,,,,
2019-11-30 18:00,32.047,24.790,34.413,9.11
2019-11-30 18:30,32.048,24.790,34.411,9.11
2019-11-30 19:00,32.044,24.795,34.368,9.06
2019-11-30 19:30,31.959,24.783,33.974,8.70
2019-11-30 20:00,31.970,24.784,34.025,8.75
2019-11-30 20:30,31.972,24.785,34.038,8.76
2019-11-30 21:00,31.967,24.782,34.023,8.75
2019-11-30 21:30,31.982,24.787,34.077,8.80
2019-11-30 22:00,31.984,24.788,34.081,8.80
2019-11-30 22:30,32.030,24.790,34.320,9.03
2019-11-30 23:00,32.024,24.779,34.346,9.06
2019-11-30 23:30,32.026,24.792,34.283,8.99
2019-12-01 00:00,32.023,24.785,34.308,9.02
2019-12-01 00:30,32.027,24.785,34.329,9.04
2019-12-01 01:00,32.032,24.789,34.336,9.04
2019-12-01 01:30,32.038,24.795,34.331,9.03
2019-12-01 02:00,32.032,24.788,34.340,9.05
2019-12-01 02:30,,,,
2019-12-01 03:00,32.044,24.792,34.380,9.08
2019-12-01 03:30,32.017,24.787,34.260,8.97
2019-12-01 04:00,32.028,24.788,34.322,9.03
2019-12-01 04:30,32.032,24.803,34.255,8.95
2019-12-01 05:00,32.033,24.807,34.239,8.93
2019-12-01 05:30,31.862,24.743,33.673,8.46
2019-12-01 05:30,,,33.674,
2019-12-01 06:30,31.936,24.786,33.833,8.57
2019-12-01 07:00,31.907,24.782,33.697,8.44
2019-12-01 07:30,31.919,24.785,33.743,8.48
2019-12-01 08:00,31.913,24.781,33.734,8.48
2019-12-01 08:30,31.926,24.788,33.764,8.50
2019-12-01 09:00,31.923,24.788,33.744,8.48
2019-12-01 09:30,31.927,24.799,33.701,8.43
2019-12-01 10:00,31.932,24.801,33.721,8.44
2019-12-01 10:30,31.948,24.799,33.821,8.54
2019-12-01 11:00,31.960,24.794,33.917,8.64
2019-12-01 11:30,31.973,24.806,33.917,8.62
2019-12-01 12:00,31.989,24.810,33.986,8.69
2019-12-01 12:30,31.996,24.806,34.045,8.75
2019-12-01 13:00,31.980,24.803,33.977,8.68
2019-12-01 13:30,31.971,24.805,33.917,8.63
2019-12-01 14:00,31.977,24.808,33.929,8.63
2019-12-01 14:30,31.982,24.807,33.962,8.67
2019-12-01 15:00,32.022,24.799,34.228,8.93
2019-12-01 15:30,32.021,24.795,34.237,8.94
2019-12-01 16:00,32.009,24.789,34.210,8.92
2019-12-01 16:30,32.004,24.792,34.165,8.88
2019-12-01 17:00,31.993,24.789,34.123,8.84
2019-12-01 17:30,31.976,24.785,34.055,8.78
2019-12-01 18:00,31.906,24.785,33.671,8.41
2019-12-01 18:30,31.843,24.750,33.529,8.32
2019-12-01 19:00,31.825,24.738,33.496,8.30
2019-12-01 19:30,31.846,24.750,33.546,8.33
2019-12-01 20:00,31.849,24.753,33.540,8.32
2019-12-01 20:30,31.848,24.753,33.535,8.32
2019-12-01 21:00,31.844,24.750,33.530,8.32
2019-12-01 21:30,31.798,24.735,33.363,8.17
2019-12-01 22:00,31.806,24.740,33.380,8.18
2019-12-01 22:30,31.809,24.740,33.399,8.20
2019-12-01 23:00,31.820,24.745,33.424,8.22
2019-12-01 23:30,31.826,24.749,33.437,8.23
2019-12-02 00:00,31.843,24.757,33.482,8.26
2019-12-02 00:30,31.878,24.771,33.596,8.36
2019-12-02 01:00,31.915,24.781,33.744,8.49
2019-12-02 01:30,31.949,24.782,33.923,8.66
2019-12-02 02:00,31.935,24.778,33.873,8.61
2019-12-02 02:30,31.938,24.774,33.912,8.66
2019-12-02 03:00,31.889,24.774,33.642,8.40
2019-12-02 03:30,31.875,24.767,33.603,8.37
2019-12-02 04:00,31.851,24.755,33.546,8.33
2019-12-02 04:30,31.848,24.751,33.550,8.34
2019-12-02 05:00,31.847,24.750,33.550,8.34
2019-12-02 05:30,31.856,24.753,33.583,8.37
2019-12-02 06:00,31.839,24.743,33.546,8.34
2019-12-02 06:30,31.834,24.741,33.530,8.33
2019-12-02 07:00,31.830,24.737,33.534,8.34
2019-12-02 07:30,31.837,24.740,33.550,8.35
2019-12-02 08:00,31.842,24.744,33.558,8.35
2019-12-02 08:30,31.849,24.747,33.575,8.36
2019-12-02 09:00,31.852,24.750,33.576,8.36
2019-12-02 09:30,31.871,24.758,33.637,8.41
2019-12-02 10:00,31.865,24.757,33.605,8.38
2019-12-02 10:30,31.870,24.758,33.628,8.40
2019-12-02 11:00,31.871,24.760,33.623,8.40
2019-12-02 11:30,31.885,24.767,33.662,8.43
2019-12-02 12:00,31.895,24.773,33.681,8.44
2019-12-02 12:30,31.917,24.786,33.728,8.47
2019-12-02 13:00,31.913,24.781,33.729,8.47
2019-12-02 13:30,31.936,24.795,33.774,8.50
2019-12-02 14:00,31.948,24.802,33.806,8.52
2019-12-02 14:30,31.943,24.800,33.789,8.51
2019-12-02 15:00,31.947,24.802,33.799,8.52
2019-12-02 15:30,31.924,24.790,33.746,8.48
2019-12-02 16:00,31.926,24.791,33.750,8.48
2019-12-02 16:30,31.920,24.787,33.735,8.47
2019-12-02 17:00,31.912,24.782,33.720,8.46
2019-12-02 17:30,31.899,24.776,33.687,8.44
2019-12-02 18:00,31.878,24.765,33.633,8.40
2019-12-02 18:30,31.874,24.764,33.612,8.38
2019-12-02 19:00,31.880,24.769,33.620,8.38
2019-12-02 19:30,31.892,24.777,33.643,8.40
2019-12-02 20:00,31.939,24.802,33.752,8.47
2019-12-02 20:30,31.931,24.802,33.711,8.43
2019-12-02 21:00,31.929,24.801,33.705,8.43
2019-12-02 21:30,31.917,24.801,33.641,8.37
2019-12-02 22:00,31.872,24.772,33.557,8.32
2019-12-02 22:30,31.867,24.772,33.528,8.29
2019-12-02 23:00,31.855,24.765,33.508,8.28
2019-12-02 23:30,31.837,24.756,33.457,8.24
2019-12-03 00:00,31.836,24.754,33.463,8.25
2019-12-03 00:30,31.842,24.759,33.464,8.24
2019-12-03 01:00,31.842,24.761,33.456,8.23
2019-12-03 01:30,31.834,24.755,33.445,8.23
2019-12-03 02:00,31.839,24.759,33.451,8.23
2019-12-03 02:30,31.840,24.756,33.480,8.26
2019-12-03 03:00,31.844,24.762,33.465,8.24
2019-12-03 03:30,31.863,24.773,33.504,8.27
2019-12-03 04:00,31.876,24.781,33.530,8.28
2019-12-03 04:30,31.899,24.796,33.568,8.30
2019-12-03 05:00,31.942,24.823,33.647,8.35
2019-12-03 05:30,31.993,24.848,33.784,8.45
2019-12-03 06:00,32.073,24.900,33.926,8.52
2019-12-03 06:30,32.131,24.938,34.021,8.57
2019-12-03 07:00,32.241,25.013,34.191,8.64
2019-12-03 07:30,32.414,25.139,34.413,8.71
2019-12-03 08:00,32.440,25.155,34.458,8.73
2019-12-03 08:30,32.437,25.156,34.439,8.71
2019-12-03 09:00,32.433,25.158,34.407,8.68
2019-12-03 09:30,32.426,25.152,34.403,8.68
2019-12-03 10:00,32.425,25.151,34.400,8.68
2019-12-03 10:30,32.416,25.148,34.370,8.66
2019-12-03 11:00,32.408,25.142,34.360,8.66
2019-12-03 11:30,32.414,25.147,34.366,8.66
2019-12-03 12:00,32.414,25.145,34.375,8.67
2019-12-03 12:30,32.415,25.145,34.384,8.68
2019-12-03 13:00,32.399,25.136,34.345,8.65
2019-12-03 13:30,32.414,25.146,34.373,8.66
2019-12-03 14:00,32.416,25.149,34.366,8.65
2019-12-03 14:30,32.412,25.150,34.341,8.63
2019-12-03 15:00,32.355,25.124,34.176,8.50
2019-12-03 15:30,32.295,25.086,34.066,8.44
2019-12-03 16:00,32.317,25.102,34.096,8.45
2019-12-03 16:30,32.305,25.094,34.075,8.44
2019-12-03 17:00,32.313,25.095,34.112,8.48
2019-12-03 17:30,32.310,25.093,34.102,8.47
2019-12-03 18:00,32.334,25.108,34.149,8.49
2019-12-03 18:30,32.359,25.124,34.197,8.52
2019-12-03 19:00,32.353,25.120,34.187,8.52
2019-12-03 19:30,32.364,25.129,34.190,8.51
2019-12-03 20:00,32.074,24.975,33.485,8.01
2019-12-03 20:30,32.145,25.016,33.637,8.11
2019-12-03 21:00,32.169,25.032,33.679,8.13
2019-12-03 21:30,32.198,25.044,33.767,8.20
2019-12-03 22:00,32.128,25.009,33.588,8.07
2019-12-03 22:30,32.054,24.963,33.447,7.99
2019-12-03 23:00,31.982,24.921,33.289,7.89
2019-12-03 23:30,32.034,24.954,33.382,7.94
2019-12-04 00:00,32.013,24.941,33.342,7.91
2019-12-04 00:30,32.027,24.952,33.360,7.92
2019-12-04 01:00,31.981,24.924,33.267,7.86
2019-12-04 01:30,31.967,24.917,33.228,7.83
2019-12-04 02:00,31.933,24.897,33.153,7.78
2019-12-04 02:30,31.873,24.868,32.992,7.66
2019-12-04 03:00,31.876,24.867,33.013,7.68
2019-12-04 03:30,31.888,24.875,33.034,7.69
2019-12-04 04:00,31.918,24.898,33.063,7.69
2019-12-04 04:30,31.914,24.895,33.059,7.69
2019-12-04 05:00,31.919,24.903,33.036,7.66
2019-12-04 05:30,31.967,24.930,33.151,7.74
2019-12-04 06:00,31.955,24.923,33.122,7.72
2019-12-04 06:30,31.960,24.933,33.090,7.68
2019-12-04 07:00,31.903,24.908,32.913,7.53
2019-12-04 07:30,31.921,24.920,32.943,7.55
2019-12-04 08:00,31.929,24.924,32.964,7.57
2019-12-04 08:30,31.936,24.929,32.973,7.57
2019-12-04 09:00,31.924,24.926,32.924,7.52
2019-12-04 09:30,31.918,24.923,32.911,7.51
2019-12-04 10:00,31.927,24.926,32.944,7.54
2019-12-04 10:30,31.928,24.925,32.954,7.55
2019-12-04 11:00,31.934,24.925,32.985,7.58
2019-12-04 11:30,31.941,24.927,33.014,7.61
2019-12-04 12:00,31.948,24.933,33.018,7.61
2019-12-04 12:30,31.943,24.928,33.025,7.62
2019-12-04 13:00,31.944,24.929,33.020,7.61
2019-12-04 13:30,31.947,24.929,33.043,7.64
2019-12-04 14:00,31.948,24.928,33.054,7.65
2019-12-04 14:30,31.951,24.928,33.067,7.66
2019-12-04 15:00,31.952,24.928,33.075,7.67
2019-12-04 15:30,31.953,24.926,33.090,7.69
2019-12-04 16:00,31.953,24.923,33.112,7.71
2019-12-04 16:30,31.955,24.921,33.132,7.73
2019-12-04 17:00,31.960,24.922,33.158,7.76
2019-12-04 17:30,31.962,24.922,33.173,7.77
2019-12-04 18:00,31.963,24.920,33.184,7.78
2019-12-04 18:30,31.960,24.917,33.187,7.79
2019-12-04 19:00,31.959,24.915,33.195,7.80
2019-12-04 19:30,31.963,24.915,33.216,7.82
2019-12-04 20:00,31.965,24.916,33.226,7.83
2019-12-04 20:30,31.966,24.914,33.237,7.84
2019-12-04 21:00,31.953,24.910,33.191,7.80
2019-12-04 21:30,31.956,24.911,33.201,7.81
2019-12-04 22:00,31.958,24.913,33.198,7.81
2019-12-04 22:30,31.955,24.910,33.203,7.82
2019-12-04 23:00,31.947,24.898,33.229,7.85
2019-12-04 23:30,31.941,24.893,33.225,7.86
2019-12-05 00:00,31.934,24.891,33.194,7.83
2019-12-05 00:30,31.929,24.888,33.185,7.82
2019-12-05 01:00,31.922,24.884,33.171,7.81
2019-12-05 01:30,31.921,24.883,33.170,7.81
2019-12-05 02:00,31.920,24.880,33.186,7.83
2019-12-05 02:30,31.928,24.885,33.199,7.84
2019-12-05 03:00,31.929,24.886,33.196,7.84
2019-12-05 03:30,31.936,24.892,33.202,7.83
2019-12-05 04:00,31.945,24.901,33.201,7.82
2019-12-05 04:30,31.934,24.892,33.195,7.83
2019-12-05 05:00,31.942,24.897,33.208,7.83
2019-12-05 05:30,31.943,24.898,33.204,7.83
2019-12-05 06:00,31.946,24.899,33.217,7.84
2019-12-05 06:30,31.942,24.896,33.209,7.84
2019-12-05 07:00,31.943,24.900,33.196,7.82
2019-12-05 07:30,31.943,24.899,33.202,7.83
2019-12-05 08:00,31.943,24.899,33.205,7.83
2019-12-05 08:30,31.952,24.905,33.214,7.83
2019-12-05 09:00,31.953,24.904,33.227,7.85
2019-12-05 09:30,31.957,24.907,33.235,7.85
2019-12-05 10:00,31.961,24.911,33.229,7.84
2019-12-05 10:30,31.959,24.907,33.242,7.86
2019-12-05 11:00,31.960,24.908,33.247,7.86
2019-12-05 11:30,31.972,24.911,33.294,7.90
2019-12-05 12:00,31.985,24.910,33.375,7.98
2019-12-05 12:30,31.990,24.908,33.414,8.02
2019-12-05 13:00,31.995,24.911,33.423,8.03
2019-12-05 13:30,31.997,24.908,33.449,8.06
2019-12-05 14:00,31.997,24.905,33.465,8.07
2019-12-05 15:00,31.997,24.902,33.486,8.10
2019-12-05 15:30,31.999,24.902,33.497,8.11
2019-12-05 16:00,31.999,24.901,33.506,8.12
2019-12-05 16:30,32.000,24.902,33.505,8.12
2019-12-05 17:00,31.997,24.903,33.479,8.09
2019-12-05 17:30,31.989,24.899,33.459,8.08
2019-12-05 18:00,31.988,24.899,33.459,8.08
2019-12-05 18:30,31.988,24.900,33.452,8.07
2019-12-05 19:00,31.995,24.902,33.480,8.09
2019-12-05 19:30,31.994,24.901,33.475,8.09
2019-12-05 20:00,31.997,24.905,33.469,8.08
2019-12-05 20:30,31.997,24.907,33.456,8.06
2019-12-05 21:00,32.004,24.909,33.489,8.09
2019-12-05 21:30,32.009,24.907,33.523,8.13
2019-12-05 22:00,32.011,24.911,33.515,8.12
2019-12-05 22:30,32.013,24.912,33.522,8.12
2019-12-05 23:00,32.015,24.912,33.527,8.13
2019-12-05 23:30,31.994,24.903,33.465,8.08
2019-12-06 00:00,31.985,24.904,33.411,8.02
2019-12-06 00:30,31.984,24.904,33.405,8.02
2019-12-06 01:00,31.986,24.907,33.392,8.00
2019-12-06 01:30,31.983,24.906,33.386,8.00
2019-12-06 02:00,31.987,24.909,33.389,8.00
2019-12-06 02:30,31.985,24.905,33.403,8.01
2019-12-06 03:00,31.993,24.916,33.385,7.99
2019-12-06 03:30,31.987,24.910,33.382,7.99
2019-12-06 04:00,31.991,24.911,33.395,8.00
2019-12-06 04:30,31.987,24.914,33.356,7.96
2019-12-06 05:00,31.994,24.921,33.360,7.95
2019-12-06 05:30,31.994,24.919,33.370,7.97
2019-12-06 06:00,31.982,24.915,33.328,7.93
2019-12-06 06:30,31.982,24.917,33.312,7.91
2019-12-06 07:00,31.986,24.925,33.288,7.88
2019-12-06 07:30,31.983,24.921,33.292,7.89
2019-12-06 08:00,31.984,24.928,33.257,7.85
2019-12-06 08:30,31.983,24.929,33.244,7.83
2019-12-06 09:00,31.979,24.929,33.225,7.81
2019-12-06 09:30,31.974,24.930,33.188,7.78
2019-12-06 10:00,31.981,24.940,33.171,7.75
2019-12-06 10:30,31.974,24.936,33.150,7.73
2019-12-06 11:00,31.978,24.941,33.148,7.73
2019-12-06 11:30,31.979,24.938,33.164,7.74
2019-12-06 12:00,31.984,24.940,33.181,7.76
2019-12-06 12:30,31.990,24.947,33.173,7.74
2019-12-06 13:00,31.987,24.950,33.143,7.71
2019-12-06 13:30,31.975,24.940,33.134,7.71
2019-12-06 14:00,31.980,24.942,33.148,7.72
2019-12-06 14:30,31.981,24.941,33.162,7.74
2019-12-06 15:00,31.982,24.939,33.175,7.75
2019-12-06 15:30,31.979,24.937,33.174,7.76
2019-12-06 16:00,31.980,24.934,33.196,7.78
2019-12-06 16:30,31.982,24.936,33.203,7.79
2019-12-06 17:00,31.989,24.938,33.224,7.80
2019-12-06 17:30,31.994,24.939,33.250,7.83
2019-12-06 18:00,32.002,24.942,33.276,7.85
2019-12-06 18:30,32.002,24.941,33.285,7.86
2019-12-06 19:00,32.012,24.948,33.294,7.86
2019-12-06 19:30,32.008,24.946,33.287,7.86
2019-12-06 20:00,32.010,24.947,33.291,7.86
2019-12-06 20:30,32.015,24.950,33.299,7.86
2019-12-06 21:00,32.013,24.950,33.286,7.85
2019-12-06 21:30,32.008,24.950,33.260,7.82
2019-12-06 22:00,32.003,24.945,33.257,7.83
2019-12-06 22:30,32.011,24.950,33.276,7.84
2019-12-06 23:00,32.012,24.951,33.279,7.84
2019-12-06 23:30,32.011,24.948,33.292,7.86
2019-12-07 00:00,32.013,24.951,33.284,7.85
2019-12-07 00:30,32.014,24.950,33.294,7.86
2019-12-07 01:00,32.016,24.952,33.290,7.85
2019-12-07 01:30,32.007,24.947,33.275,7.84
2019-12-07 02:00,32.005,24.948,33.256,7.82
2019-12-07 02:30,32.014,24.956,33.258,7.81
2019-12-07 03:00,32.015,24.960,33.236,7.79
2019-12-07 03:30,32.009,24.954,33.240,7.80
2019-12-07 04:00,32.015,24.962,33.232,7.78
2019-12-07 04:30,32.011,24.960,33.217,7.77
2019-12-07 05:00,32.012,24.963,33.206,7.76
2019-12-07 05:30,32.011,24.961,33.211,7.76
2019-12-07 06:00,32.009,24.959,33.216,7.77
2019-12-07 06:30,32.017,24.966,33.213,7.76
2019-12-07 07:00,32.013,24.966,33.192,7.74
2019-12-07 07:30,32.013,24.962,33.221,7.77
2019-12-07 08:00,32.018,24.966,33.220,7.77
2019-12-07 08:30,32.020,24.969,33.211,7.75
2019-12-07 09:00,32.023,24.968,33.235,7.78
2019-12-07 09:30,32.030,24.969,33.272,7.81
2019-12-07 10:00,32.036,24.972,33.288,7.83
2019-12-07 10:30,32.046,24.977,33.314,7.85
2019-12-07 11:00,32.056,24.976,33.377,7.91
2019-12-07 11:30,32.069,24.988,33.382,7.90
2019-12-07 12:00,32.074,24.991,33.386,7.90
2019-12-07 12:30,32.094,25.007,33.404,7.90
2019-12-07 13:00,32.106,25.002,33.500,8.00
2019-12-07 13:30,32.111,25.006,33.506,8.00
2019-12-07 14:00,32.110,25.008,33.487,7.98
2019-12-07 14:30,32.114,25.006,33.529,8.02
2019-12-07 15:00,32.116,25.005,33.548,8.04
2019-12-07 15:30,32.110,25.005,33.509,8.00
2019-12-07 16:00,32.120,25.008,33.547,8.03
2019-12-07 16:30,32.125,25.011,33.554,8.04
2019-12-07 17:00,32.132,25.027,33.503,7.97
2019-12-07 17:30,32.121,25.031,33.411,7.88
2019-12-07 18:00,32.107,25.023,33.384,7.86
2019-12-07 18:30,32.103,25.014,33.417,7.90
2019-12-07 19:00,32.102,25.011,33.424,7.91
2019-12-07 19:30,32.097,25.008,33.418,7.91
2019-12-07 20:00,32.089,25.003,33.403,7.90
2019-12-07 20:30,32.089,25.004,33.393,7.89
2019-12-07 21:00,32.089,25.004,33.396,7.89
2019-12-07 21:30,32.093,25.004,33.417,7.91
2019-12-07 22:00,32.099,25.008,33.428,7.92
2019-12-07 22:30,32.096,25.012,33.384,7.87
2019-12-07 23:00,32.089,25.005,33.392,7.89
2019-12-07 23:30,32.099,25.014,33.388,7.87
2019-12-08 00:00,32.115,25.036,33.350,7.81
2019-12-08 00:30,32.108,25.028,33.358,7.83
2019-12-08 01:00,32.119,25.042,33.335,7.79
2019-12-08 01:30,32.110,25.035,33.325,7.79
2019-12-08 02:00,32.132,25.048,33.372,7.82
2019-12-08 02:30,32.131,25.053,33.337,7.78
2019-12-08 03:00,32.133,25.051,33.359,7.80
2019-12-08 03:30,32.139,25.059,33.350,7.78
2019-12-08 04:00,32.137,25.057,33.349,7.79
2019-12-08 04:30,32.136,25.058,33.336,7.77
2019-12-08 05:00,32.126,25.049,33.331,7.78
2019-12-08 05:30,32.127,25.047,33.351,7.80
2019-12-08 06:00,32.133,25.048,33.380,7.83
2019-12-08 06:30,32.136,25.051,33.377,7.82
2019-12-08 07:00,32.137,25.056,33.358,7.80
2019-12-08 07:30,32.146,25.059,33.388,7.82
2019-12-08 08:00,32.154,25.058,33.435,7.87
2019-12-08 08:30,32.160,25.069,33.401,7.82